TimeCDT,TemperatureF,Dew PointF,Humidity,Sea Level PressureIn,VisibilityMPH,Wind Direction,Wind SpeedMPH,Gust SpeedMPH,PrecipitationIn,Events,Conditions,WindDirDegrees,DateUTC
12:48 AM,64.4,60.8,88,29.98,10.0,SSE,5.8,-,N/A,,Mostly Cloudy,150,2013-03-31 05:48:00
12:53 AM,64.9,62.1,90,29.97,10.0,SSE,5.8,-,N/A,,Mostly Cloudy,160,2013-03-31 05:53:00
1:26 AM,66.2,62.6,88,29.97,9.0,South,6.9,-,N/A,,Overcast,170,2013-03-31 06:26:00
1:53 AM,66.9,63.0,87,29.95,10.0,South,8.1,-,N/A,,Overcast,170,2013-03-31 06:53:00
3:53 AM,69.1,63.0,81,29.92,10.0,SSE,5.8,-,N/A,,Overcast,160,2013-03-31 08:53:00
4:53 AM,68.0,63.0,84,29.92,10.0,South,3.5,-,N/A,,Overcast,180,2013-03-31 09:53:00
6:53 AM,68.0,63.0,84,29.93,10.0,South,4.6,-,N/A,,Overcast,190,2013-03-31 11:53:00
8:53 AM,69.1,63.0,81,29.92,8.0,South,6.9,-,N/A,,Overcast,190,2013-03-31 13:53:00
9:53 AM,70.0,62.1,76,29.92,9.0,SSW,9.2,-,N/A,,Overcast,210,2013-03-31 14:53:00
10:53 AM,73.9,63.0,68,29.92,10.0,South,10.4,-,N/A,,Overcast,190,2013-03-31 15:53:00
12:53 PM,60.1,57.0,90,30.00,1.2,NE,13.8,20.7,0.31,Rain,Heavy Rain,50,2013-03-31 17:53:00
1:09 PM,60.8,57.2,88,30.00,3.0,ENE,5.8,-,0.10,Rain,Rain,70,2013-03-31 18:09:00
1:18 PM,60.8,57.2,88,30.00,1.8,ENE,6.9,-,0.18,Rain,Heavy Rain,70,2013-03-31 18:18:00
1:34 PM,60.8,57.2,88,29.99,3.0,East,11.5,-,0.28,Rain,Rain,80,2013-03-31 18:34:00
1:48 PM,60.8,57.2,88,29.99,2.0,East,8.1,-,0.38,Rain,Heavy Rain,100,2013-03-31 18:48:00
1:53 PM,61.0,57.9,90,29.99,3.0,SE,8.1,-,0.38,Rain,Light Rain,130,2013-03-31 18:53:00
2:11 PM,62.6,60.8,94,29.96,10.0,ESE,12.7,-,0.00,,Mostly Cloudy,110,2013-03-31 19:11:00
2:53 PM,64.9,60.1,84,29.93,10.0,ESE,8.1,-,0.00,,Overcast,110,2013-03-31 19:53:00
3:36 PM,68.0,60.8,78,29.90,10.0,SE,6.9,-,N/A,,Scattered Clouds,140,2013-03-31 20:36:00
3:53 PM,69.1,61.0,75,29.89,10.0,South,9.2,-,N/A,,Partly Cloudy,180,2013-03-31 20:53:00
4:53 PM,71.1,61.0,70,29.89,10.0,Calm,Calm,-,N/A,,Partly Cloudy,0,2013-03-31 21:53:00
5:53 PM,71.1,61.0,70,29.89,10.0,Calm,Calm,-,N/A,,Partly Cloudy,0,2013-03-31 22:53:00
6:50 PM,68.0,60.8,78,29.91,10.0,SE,10.4,-,N/A,,Mostly Cloudy,130,2013-03-31 23:50:00
6:53 PM,68.0,61.0,78,29.90,10.0,SE,10.4,-,N/A,,Mostly Cloudy,140,2013-03-31 23:53:00
8:53 PM,64.0,59.0,84,29.92,10.0,SE,4.6,-,N/A,,Overcast,130,2013-04-01 01:53:00
9:39 PM,64.4,60.8,88,29.96,10.0,Calm,Calm,-,N/A,,Overcast,0,2013-04-01 02:39:00
9:53 PM,64.0,59.0,84,29.96,10.0,SSW,3.5,-,N/A,,Overcast,210,2013-04-01 02:53:00
10:11 PM,64.4,59.0,83,29.98,10.0,Calm,Calm,-,N/A,,Overcast,0,2013-04-01 03:11:00
10:53 PM,64.0,59.0,84,29.99,10.0,Calm,Calm,-,N/A,,Overcast,0,2013-04-01 03:53:00